Location: Newark
(53.3469°N, 7.1606°E)
Time: 01:45:26
(UTC+00:00)

N. Korean satellite - Pass Details

Date: 12 November 2019
Orbit: 456 x 506 km, 97.2° (Epoch: 06 December)

Event Time Altitude Azimuth Distance (km) Brightness Sun altitude
Rises 05:55:52 0° 10° (N) 2,625 10.2 -8.2°
Reaches altitude 10° 05:57:59 10° 7° (N) 1,736 9.3 -7.9°
Maximum altitude 06:01:40 60° 288° (WNW) 588 6.7 -7.4°
Drops below altitude 10° 06:05:19 10° 208° (SSW) 1,718 9.3 -6.9°
Sets 06:07:24 0° 205° (SSW) 2,594 10.2 -6.6°
